Weather History for KP92 - November, 2012

Change the Weather History Date:

Sunday, November 25, 2012

  Actual Average Record
Temperature  
Mean Temperature 54 °F -  
Max Temperature 66 °F 65 °F 77 °F (2010)
Min Temperature 43 °F 50 °F 35 °F (2003)
Degree Days  
Heating Degree Days 10    
Growing Degree Days 4 (Base 50)    
Moisture  
Dew Point 47 °F    
Average Humidity 74    
Maximum Humidity 89    
Minimum Humidity 53    
Precipitation  
Precipitation 0.01 in - - ()
Sea Level Pressure  
Sea Level Pressure 30.13 in    
Wind  
Wind Speed 3 mph (SE)    
Max Wind Speed 9 mph    
Max Gust Speed -    
Averages and records for this station are not official NWS values.
T = Trace of Precipitation, MM = Missing Value Source: NWS Daily Summary

Daily Weather History Graph

Daily Weather History Graph

Search for Another Location

Airport or City:

Trip Planner

Search our weather history database for the weather conditions in past years. The results will help you decide how hot, cold, wet, or windy it might be!

Date:

Astronomy

Nov. 25, 2012 Rise Set
Actual Time 6:39 AM CST 5:07 PM CST
Civil Twilight 6:13 AM CST 5:33 PM CST
Nautical Twilight 5:44 AM CST 6:02 PM CST
Astronomical Twilight 5:15 AM CST 6:30 PM CST
Moon 3:17 PM CST (11/25) 4:01 AM CST (11/25)
Length of Visible Light 11h 19m
Length of Day
10h 28m
Waxing Gibbous, 93% of the Moon is Illuminated
Nov 25
Waxing Gibbous
Nov 28
Full
Dec 6
Last Quarter
Dec 13
New
Dec 19
First Quarter

Hourly Weather History & Observations

Time (CST) Temp. Dew Point Humidity Pressure Visibility Wind Dir Wind Speed Gust Speed Precip Events Conditions
12:53 AM 45.0 °F 37.9 °F 76% 30.18 in - Calm Calm - N/A   Unknown
1:53 AM 44.1 °F 37.9 °F 79% 30.17 in - Calm Calm - N/A   Unknown
2:53 AM 43.0 °F 39.0 °F 86% 30.15 in - Calm Calm - N/A   Unknown
3:53 AM 43.0 °F 39.0 °F 86% 30.15 in - Calm Calm - N/A   Unknown
4:53 AM 43.0 °F 39.9 °F 89% 30.15 in - Calm Calm - N/A   Unknown
5:53 AM 43.0 °F 39.9 °F 89% 30.17 in - Calm Calm - N/A   Unknown
6:53 AM 43.0 °F 39.0 °F 86% 30.18 in - Calm Calm - 0.01 in   Unknown
7:53 AM 50.0 °F 41.0 °F 71% 30.19 in - Variable 3.5 mph - N/A   Unknown
8:53 AM 55.9 °F 42.1 °F 60% 30.19 in - Variable 4.6 mph - N/A   Unknown
9:53 AM 60.1 °F 43.0 °F 53% 30.19 in - ESE 8.1 mph - N/A   Unknown
10:53 AM 62.1 °F 46.0 °F 56% 30.18 in - SE 9.2 mph - N/A   Unknown
11:53 AM 64.0 °F 48.0 °F 56% 30.15 in - ESE 8.1 mph - N/A   Unknown
12:53 PM 64.0 °F 50.0 °F 60% 30.13 in - ESE 8.1 mph - N/A   Unknown
1:53 PM 64.9 °F 50.0 °F 58% 30.10 in - SE 9.2 mph - N/A   Unknown
2:53 PM 66.9 °F 50.0 °F 54% 30.08 in - SE 6.9 mph - N/A   Unknown
3:53 PM 66.0 °F 52.0 °F 60% 30.08 in - SE 6.9 mph - N/A   Unknown
4:53 PM 64.0 °F 53.1 °F 67% 30.08 in - SE 5.8 mph - N/A   Unknown
5:53 PM 61.0 °F 54.0 °F 78% 30.08 in - SE 4.6 mph - N/A   Unknown
6:53 PM 60.1 °F 53.1 °F 78% 30.09 in - ESE 5.8 mph - N/A   Unknown
7:53 PM 59.0 °F 54.0 °F 83% 30.10 in - ESE 4.6 mph - N/A   Unknown
8:53 PM 57.9 °F 54.0 °F 87% 30.10 in - ESE 4.6 mph - N/A   Unknown
9:53 PM 57.9 °F 54.0 °F 87% 30.09 in - ESE 3.5 mph - N/A   Unknown
10:53 PM 59.0 °F 55.0 °F 87% 30.08 in - ESE 5.8 mph - N/A   Unknown
11:53 PM 60.1 °F 55.9 °F 86% 30.07 in - ESE 4.6 mph - N/A   Unknown